FW8602 Weather Reports


time (UTC)temp
F
wind
direction
speed
knots
gust
knots
rain 1hr
in
rain 24hr
in
rain mn
in
humidity
%
barometer
mb
20260504202602 75 276 2.6 7.8 0.00 0.00 0.00 35 1008.2
20260504202058 75 110 2.6 8.7 0.00 0.00 0.00 33 1008.4
20260504201602 75 258 1.7 8.7 0.00 0.00 0.00 34 1008.5
20260504201104 75 145 0.9 8.7 0.00 0.00 0.00 34 1008.5
20260504200602 75 271 2.6 7.8 0.00 0.00 0.00 34 1008.5
20260504195720 75 162 0.9 7.8 0.00 0.00 0.00 35 1008.6
20260504195058 74 240 2.6 7.8 0.00 0.00 0.00 35 1008.7
20260504194559 75 309 2.6 6.1 0.00 0.00 0.00 35 1008.6
20260504194059 75 284 1.7 7.8 0.00 0.00 0.00 36 1008.7
20260504193559 74 345 1.7 7.8 0.00 0.00 0.00 36 1008.8
20260504193059 74 274 1.7 7.8 0.00 0.00 0.00 36 1008.9
20260504192559 74 11 1.7 7.0 0.00 0.00 0.00 35 1009.0
20260504192059 74 9 0.9 7.0 0.00 0.00 0.00 38 1009.0
20260504191610 74 92 1.7 7.0 0.00 0.00 0.00 37 1009.3
20260504191058 74 295 0.9 7.0 0.00 0.00 0.00 39 1009.3
20260504190558 73 307 1.7 7.0 0.00 0.00 0.00 36 1009.3
20260504190121 73 283 1.7 8.7 0.00 0.00 0.00 36 1009.4
20260504185557 73 242 1.7 8.7 0.00 0.00 0.00 37 1009.5
20260504185101 73 269 2.6 8.7 0.00 0.00 0.00 35 1009.7
20260504184605 73 115 1.7 6.1 0.00 0.00 0.00 38 1009.6
20260504184059 73 286 0.9 10.4 0.00 0.00 0.00 38 1009.7
20260504183559 72 0 2.6 10.4 0.00 0.00 0.00 39 1009.8
20260504183107 72 208 1.7 5.2 0.00 0.00 0.00 38 1009.8
20260504182559 72 326 1.7 9.6 0.00 0.00 0.00 38 1009.8
20260504182101 71 301 1.7 9.6 0.00 0.00 0.00 39 1010.0
20260504181601 71 64 1.7 7.8 0.00 0.00 0.00 37 1010.1
20260504181058 71 14 0.9 7.8 0.00 0.00 0.00 41 1010.2
20260504180558 71 103 2.6 7.8 0.00 0.00 0.00 37 1010.1
20260504180117 71 316 0.9 7.8 0.00 0.00 0.00 37 1010.2
20260504175602 71 194 2.6 7.8 0.00 0.00 0.00 37 1010.2
20260504175058 72 304 1.7 6.1 0.00 0.00 0.00 38 1010.2
20260504174601 72 249 1.7 7.8 0.00 0.00 0.00 37 1010.3
20260504174058 71 39 1.7 7.8 0.00 0.00 0.00 40 1010.2
20260504173558 71 143 0.9 6.1 0.00 0.00 0.00 40 1010.4
20260504173059 70 297 2.6 7.8 0.00 0.00 0.00 37 1010.4
20260504172558 70 299 0.9 8.7 0.00 0.00 0.00 39 1010.5
20260504172057 70 295 2.6 8.7 0.00 0.00 0.00 38 1010.6
20260504171600 70 290 1.7 7.0 0.00 0.00 0.00 40 1010.6
20260504171101 70 287 1.7 7.8 0.00 0.00 0.00 39 1010.6
20260504170558 70 13 0.9 7.8 0.00 0.00 0.00 43 1010.6
20260504160108 67 293 2.6 7.8 0.00 0.00 0.00 41 1011.8
20260504151057 65 281 2.6 8.7 0.00 0.00 0.00 39 1012.5
20260504150558 65 225 2.6 7.0 0.00 0.00 0.00 39 1012.7
20260504141058 61 283 0.9 4.3 0.00 0.00 0.00 48 1012.5
20260504140558 60 37 0.9 3.5 0.00 0.00 0.00 50 1012.6
20260504140106 60 351 0.9 3.5 0.00 0.00 0.00 51 1012.8
20260504130558 50 0 0.0 0.9 0.00 0.00 0.00 64 1013.4
20260504110601 37 75 0.0 0.9 0.00 0.00 0.00 92 1013.7
20260504100602 35 0 0.0 0.0 0.00 0.00 0.00 92 1013.5
20260504100103 34 0 0.0 0.0 0.00 0.00 0.00 92 1013.5
20260504081608 35 0 0.0 0.0 0.00 0.00 0.00 92 1013.9
20260504081058 35 0 0.0 0.0 0.00 0.00 0.00 92 1013.8
20260504080603 35 0 0.0 0.0 0.00 0.00 0.00 92 1013.9
20260504080116 35 0 0.0 0.0 0.00 0.00 0.00 92 1013.8
20260504050559 39 0 0.0 0.0 0.00 0.00 0.00 85 1013.9
20260504050107 39 0 0.0 0.0 0.00 0.00 0.00 85 1013.9
20260504045602 39 0 0.0 0.0 0.00 0.00 0.00 84 1014.0
20260504045102 39 0 0.0 0.0 0.00 0.00 0.00 84 1014.0
20260504044603 39 0 0.0 0.0 0.00 0.00 0.00 84 1014.1
20260504044058 38 0 0.0 0.0 0.00 0.00 0.00 83 1014.0
20260504043558 38 0 0.0 0.0 0.00 0.00 0.00 83 1014.0
20260504043102 39 0 0.0 0.0 0.00 0.00 0.00 83 1014.0
20260504042600 39 0 0.0 0.0 0.00 0.00 0.00 82 1014.1
20260504042101 39 0 0.0 0.0 0.00 0.00 0.00 81 1014.0
20260504041602 39 0 0.0 0.0 0.00 0.00 0.00 81 1014.0
20260504041101 39 0 0.0 0.0 0.00 0.00 0.00 81 1013.9
20260504040558 39 0 0.0 0.0 0.00 0.00 0.00 79 1013.8
20260504035558 40 0 0.0 0.0 0.00 0.00 0.00 78 1013.7
20260504035057 40 0 0.0 0.0 0.00 0.00 0.00 78 1013.8
20260504034600 40 0 0.0 0.0 0.00 0.00 0.00 77 1013.8
20260504034104 40 0 0.0 0.0 0.00 0.00 0.00 78 1013.8
20260504033601 40 0 0.0 0.0 0.00 0.00 0.00 76 1013.7
20260504033101 40 0 0.0 0.0 0.00 0.00 0.00 76 1013.7
20260504032601 41 0 0.0 0.0 0.00 0.00 0.00 75 1013.8
20260504032103 41 0 0.0 0.0 0.00 0.00 0.00 75 1013.8
20260504031600 41 0 0.0 0.0 0.00 0.00 0.00 74 1013.7
20260504031058 41 0 0.0 0.0 0.00 0.00 0.00 73 1013.6
20260504030558 41 0 0.0 0.0 0.00 0.00 0.00 73 1013.5
20260504030058 41 0 0.0 0.0 0.00 0.00 0.00 71 1013.5
20260504025558 42 0 0.0 0.0 0.00 0.00 0.00 69 1013.6
20260504025101 42 0 0.0 0.0 0.00 0.00 0.00 69 1013.6
20260504024616 43 0 0.0 0.0 0.00 0.00 0.00 69 1013.5
20260504024057 43 0 0.0 0.0 0.00 0.00 0.00 69 1013.5
20260504023558 43 0 0.0 0.0 0.00 0.00 0.00 69 1013.4
20260504023101 43 0 0.0 0.0 0.00 0.00 0.00 68 1013.5
20260504022602 43 0 0.0 0.0 0.00 0.00 0.00 68 1013.5
20260504022058 44 0 0.0 0.0 0.00 0.00 0.00 68 1013.6
20260504021558 44 0 0.0 0.0 0.00 0.00 0.00 66 1013.5
20260504021100 44 0 0.0 0.0 0.00 0.00 0.00 65 1013.4
20260504020558 45 0 0.0 3.5 0.00 0.00 0.00 65 1013.3
20260504015601 0 0.0 0.0 0.00 0.00 0.00 1013.2
20260503234602 57 0 0.9 2.6 0.00 0.00 0.00 39 1012.2
20260503234101 57 0 0.9 5.2 0.00 0.00 0.00 39 1012.0
20260503233558 57 0 0.9 5.2 0.00 0.00 0.00 38 1012.0
20260503233058 57 53 1.7 5.2 0.00 0.00 0.00 38 1012.0
20260503232557 58 302 0.9 6.1 0.00 0.00 0.00 38 1012.0
20260503232057 58 249 0.9 7.0 0.00 0.00 0.00 37 1012.0
20260503231559 58 0 2.6 9.6 0.00 0.00 0.00 37 1011.9
20260503231059 59 295 0.9 9.6 0.00 0.00 0.00 36 1011.9
20260503230602 59 320 1.7 7.8 0.00 0.00 0.00 36 1012.0
20260503230058 59 293 0.9 6.1 0.00 0.00 0.00 36 1012.0
20260503225558 59 358 2.6 6.1 0.00 0.00 0.00 35 1011.9
20260503225058 59 0 1.7 7.0 0.00 0.00 0.00 34 1011.9
20260503224557 60 288 1.7 7.0 0.00 0.00 0.00 33 1011.9
20260503224058 61 310 0.9 4.3 0.00 0.00 0.00 34 1011.9
20260503223558 61 235 0.9 4.3 0.00 0.00 0.00 33 1011.8
20260503223056 60 276 0.9 5.2 0.00 0.00 0.00 34 1011.9
20260503222557 60 0 1.7 8.7 0.00 0.00 0.00 35 1011.9
20260503222057 60 0 3.5 8.7 0.00 0.00 0.00 34 1011.9
20260503221600 60 303 2.6 7.8 0.00 0.00 0.00 33 1011.7
20260503221058 60 315 1.7 7.8 0.00 0.00 0.00 35 1011.8
20260503220558 60 311 1.7 7.8 0.00 0.00 0.00 35 1011.8
20260503220058 59 271 2.6 7.8 0.00 0.00 0.00 34 1011.8
20260503215559 60 254 2.6 7.0 0.00 0.00 0.00 35 1011.9
20260503215057 60 6 1.7 7.0 0.00 0.00 0.00 34 1011.9
20260503214557 60 13 0.9 6.1 0.00 0.00 0.00 35 1011.8
20260503214057 60 297 1.7 7.0 0.00 0.00 0.00 35 1011.8
20260503213557 60 276 1.7 7.8 0.00 0.00 0.00 34 1011.8
20260503213105 60 0 1.7 9.6 0.00 0.00 0.00 34 1011.7
20260503212602 61 314 1.7 9.6 0.00 0.00 0.00 33 1011.8
20260503212101 61 355 2.6 11.3 0.00 0.00 0.00 33 1011.6
20260503211620 61 0 3.5 11.3 0.00 0.00 0.00 33 1011.6
20260503211058 60 13 0.9 6.1 0.00 0.00 0.00 33 1011.6
20260503210558 60 316 1.7 8.7 0.00 0.00 0.00 33 1011.7
20260503205558 61 315 2.6 8.7 0.00 0.00 0.00 32 1011.6
20260503205101 62 32 0.9 6.1 0.00 0.00 0.00 31 1011.6
20260503204600 61 352 1.7 11.3 0.00 0.00 0.00 34 1011.5
20260503204057 61 293 2.6 11.3 0.00 0.00 0.00 34 1011.6
20260503203557 61 276 1.7 6.1 0.00 0.00 0.00 34 1011.8
20260503203114 61 27 0.9 5.2 0.00 0.00 0.00 35 1011.6